Tracking 18856 objects as of 12-Dec-2017
HD Live streaming from Space Station
objects crossing your sky now

OPS 6432

Track OPS 6432 now!
10-day predictions
OPS 6432 is classified as:


NORAD ID: 14112
Int'l Code: 1983-056A
Perigee: 392.2 km
Apogee: 1,734.9 km
Inclination: 63.3 °
Period: 106.3 minutes
Semi major axis: 7434 km
RCS: Unknown
Launch date: June 9, 1983
Source: United States (US)
Launch site: AIR FORCE WESTERN TEST RANGE (AFWTR)
aabbcc
Your satellite tracking list
Your tracking list is empty




NASA's NSSDC Master Catalog

Two Line Element Set (TLE):
1 14112U 83056A   17174.10652455 0.00001900  00000-0  15175-3 0    04
2 14112  63.2970  59.1570 0903014  70.0991 289.9009 13.54306648    05
Source of the keplerian elements: McCants